User: anonymous   Login
Location: Unspecified
(0.0000°N, 0.0000°E)
Time: 16:43:54
(UTC+01:00)
Language:

H-2A R/B - Orbit

View from above orbital plane
View from above orbital plane
View from above satellite
View from above satellite

Ground track
Ground track

The orbit data is extracted from the following two-line orbital elements,

1 28932U 06002B   14304.13700623  .00004736  00000-0  47588-3 0  8462
2 28932 098.2833 170.7805 0094272 210.0419 269.6299 14.88499650474808
Epoch (UTC): 31 October 2014 03:17:17
Eccentricity: 0.0094272
inclination: 98.2833°
perigee height: 537 km
apogee height: 668 km
right ascension of ascending node: 170.7805°
argument of perigee: 210.0419°
revolutions per day: 14.88499650
mean anomaly at epoch: 269.6299°
orbit number at epoch: 47480

The dashed part of the orbit path shows where the satellite is in the earth's shadow,  

DLR